Wind_Speed
17 18 17 14 13 12 12 12 12 12 11 10 9 9 8 7 6 6 6 6 6 5 5 5 5 5 5 5 5 6 6 6 7 7 7 7 6 5 4 3 4 5
19 19 17 14 13 13 13 12 12 12 11 10 9 9 9 9 8 7 7 7 7 6 6 6 5 5 6 5 6 7 7 8 9 8 8 8 8 7 6 5 6 6
21 19 17 15 15 14 14 13 12 11 10 10 10 9 9 9 8 7 8 8 8 7 7 7 6 7 7 7 8 8 9 10 10 10 10 9 9 9 8 8 8 8
22 21 18 16 16 15 15 13 12 12 11 10 10 9 9 8 8 9 9 9 9 9 8 8 8 8 7 8 9 10 10 10 11 11 11 10 10 10 10 10 10 10
24 21 19 17 16 15 15 14 14 14 12 9 9 9 10 10 10 10 10 10 10 10 10 9 9 8 8 8 9 11 12 12 12 12 12 12 12 12 11 11 12 12
25 22 21 19 16 15 16 16 15 14 12 11 11 11 11 12 12 12 12 11 12 11 10 10 9 9 9 9 11 12 12 13 13 12 12 13 13 13 13 13 14 15
27 25 22 20 18 16 17 17 16 14 12 12 13 13 13 13 14 14 14 13 12 11 10 10 10 10 10 11 11 11 12 13 14 14 13 14 15 15 15 15 16 17
29 26 23 21 19 18 18 18 16 14 13 14 15 16 16 16 16 15 15 13 12 10 10 10 11 12 12 12 13 14 14 15 15 15 15 15 15 15 15 16 17 19
30 27 25 23 21 20 20 18 16 14 14 15 17 18 18 17 17 15 14 13 12 12 11 12 13 13 14 14 16 17 17 16 16 16 16 17 17 17 16 16 17 18
31 28 27 25 24 22 21 19 16 14 14 16 18 19 19 19 18 16 15 14 13 12 12 13 14 15 15 16 17 16 15 14 15 16 17 17 17 16 16 16 17 18
32 30 29 28 26 24 22 19 17 15 16 18 19 20 20 19 18 18 16 15 13 12 13 14 15 15 15 15 14 12 12 13 14 15 16 15 14 14 14 15 17 18
33 32 30 29 27 25 23 20 18 18 19 20 20 20 19 19 18 17 17 17 15 13 14 15 15 13 12 12 12 12 14 15 14 13 13 13 12 12 13 14 15 16
35 33 32 30 28 26 24 21 20 20 21 22 21 19 17 17 16 16 15 15 13 12 14 15 13 12 11 12 13 14 14 14 13 12 12 12 12 12 12 12 13 13
35 34 33 30 28 27 25 22 21 22 23 23 21 18 16 15 15 13 12 11 11 12 13 12 11 12 13 13 14 14 14 14 14 14 13 12 12 12 12 12 13 13
36 35 32 29 29 28 25 23 22 22 23 23 21 18 17 17 15 14 14 14 13 13 13 13 13 14 14 13 12 12 13 14 14 14 14 14 14 14 15 15 15 15
36 34 32 31 31 29 26 24 23 23 23 23 22 21 20 19 17 17 16 16 16 15 14 15 16 16 15 13 12 13 14 15 15 15 15 15 16 17 18 18 17 17
34 33 34 34 33 29 26 25 24 24 25 25 24 23 21 20 18 18 17 17 18 17 16 16 18 18 16 14 13 14 15 15 15 15 14 15 16 17 19 20 19 19
34 35 37 37 34 30 27 26 26 27 27 26 26 25 23 21 19 19 19 19 20 20 19 18 19 19 18 16 16 16 16 16 15 13 12 12 14 16 18 19 18 18
36 36 37 37 35 30 27 28 29 29 28 27 26 25 24 21 21 21 22 22 23 22 22 21 20 20 20 19 18 18 16 15 14 13 12 12 13 15 16 16 16 16
36 36 37 37 35 31 30 30 31 31 29 28 27 26 25 23 23 24 25 25 24 23 23 23 22 21 21 21 20 17 15 14 14 13 12 13 14 14 15 14 14 14
35 36 38 38 35 33 33 34 34 33 31 29 28 27 26 25 25 26 26 26 24 24 25 25 24 23 22 21 18 15 13 14 15 13 13 15 15 14 13 12 12 13
38 38 38 38 37 35 35 35 36 36 33 31 29 29 28 27 26 26 26 26 24 23 23 22 22 22 20 18 15 13 14 15 14 14 15 16 15 13 11 11 11 12
39 39 39 39 37 36 37 37 38 37 35 32 31 31 30 28 27 27 26 23 19 17 18 18 18 17 16 15 14 14 15 15 14 14 15 15 14 12 10 10 12 13
40 41 41 39 37 37 39 39 39 38 36 33 32 32 32 29 27 23 18 15 12 12 14 14 14 14 15 16 16 16 16 15 13 13 13 13 13 12 11 12 14 15
42 42 41 39 38 39 40 40 40 38 36 33 31 32 29 24 19 14 10 9 10 10 11 11 12 14 16 17 17 17 16 14 12 12 11 12 13 13 14 15 15 14
42 42 41 39 39 40 40 40 38 35 32 29 27 26 21 14 9 6 7 8 9 10 12 12 13 13 14 14 15 15 15 13 12 11 10 11 13 14 16 17 15 11
Wind_Direction
198 197 195 198 202 207 206 204 207 208 209 213 209 207 208 212 226 242 244 234 236 259 284 291 295 308 321 330 332 329 324 315 313 316 309 305 303 285 270 291 303 291
198 198 201 207 207 208 209 209 213 216 218 218 218 221 227 233 239 238 232 230 237 259 278 281 290 304 311 318 321 316 309 302 298 298 295 292 288 276 270 281 283 277
199 201 206 209 207 207 208 210 217 221 221 222 224 226 227 230 228 224 230 237 245 263 273 275 285 297 304 312 316 314 307 299 294 291 288 284 277 270 267 269 268 267
200 205 208 209 211 212 210 213 218 217 219 224 223 220 219 225 227 227 238 248 254 263 269 274 284 292 299 306 312 315 313 309 304 296 286 279 275 270 262 258 257 259
200 204 208 209 211 212 210 211 211 210 217 223 219 220 223 228 235 241 246 249 253 261 268 276 285 290 296 302 305 307 307 308 308 302 288 279 279 271 258 253 253 254
201 205 207 208 208 208 209 211 210 210 221 233 232 233 232 232 241 247 248 251 257 264 269 273 280 286 291 295 298 300 301 301 301 298 287 280 280 273 260 256 256 255
201 204 205 206 208 210 211 211 210 213 228 240 238 237 237 239 247 250 253 259 263 267 268 271 279 285 291 294 293 293 295 296 295 293 288 283 279 273 262 257 258 257
201 202 202 204 208 211 211 209 211 221 234 237 236 239 242 247 252 254 256 258 259 265 271 278 285 288 291 293 291 290 290 291 291 287 285 281 273 269 265 261 261 257
199 200 200 203 206 209 211 213 217 226 233 235 238 241 244 249 252 251 253 257 259 265 269 276 284 285 288 291 291 294 293 291 288 283 282 280 274 270 270 271 268 261
198 199 200 202 205 209 213 217 219 221 227 236 241 244 248 252 252 251 253 258 262 267 271 275 280 282 288 292 293 293 291 288 288 286 285 286 283 278 275 277 276 270
197 198 200 203 205 210 215 217 216 219 227 235 241 247 253 254 253 252 253 255 259 265 270 275 279 285 291 292 289 290 291 292 293 290 290 294 292 287 281 280 281 279
196 197 200 203 206 211 215 216 216 220 228 236 242 248 251 251 250 249 249 252 256 261 272 280 283 283 282 281 282 290 296 297 294 288 288 291 290 288 287 286 287 286
194 197 200 204 208 212 215 217 219 223 229 236 240 241 240 238 238 239 243 251 258 269 279 281 279 276 275 278 283 290 295 294 288 282 282 283 281 280 281 283 287 290
194 198 201 204 209 213 215 217 221 226 232 235 234 232 231 231 233 240 250 260 266 272 274 269 271 280 283 285 285 285 287 285 278 274 275 278 276 276 278 279 284 292
196 200 202 205 209 212 213 216 220 227 231 230 228 232 236 237 243 255 261 263 263 265 267 265 271 280 280 281 282 281 281 279 273 270 269 271 274 278 282 283 285 294
196 199 203 206 208 210 212 214 218 224 227 226 229 237 241 242 250 258 258 259 261 263 265 265 268 273 277 280 280 278 278 274 270 268 267 271 279 283 285 286 287 293
195 200 206 208 208 209 212 214 217 221 225 228 233 238 241 245 252 255 255 258 260 261 262 262 263 266 271 275 274 271 271 268 264 265 270 277 286 291 291 291 291 292
196 203 208 208 209 210 211 215 219 222 225 228 233 238 241 246 251 255 258 259 257 256 258 258 258 260 262 266 267 265 263 262 262 266 275 289 298 301 300 299 297 294
200 205 207 208 210 211 212 217 219 221 224 227 232 237 241 246 251 255 258 259 257 255 254 254 255 256 257 259 262 261 259 259 262 268 281 300 313 314 311 308 304 297
202 204 206 209 211 211 213 217 219 220 223 227 233 237 239 243 248 251 255 258 258 257 255 255 257 256 255 258 259 258 258 259 262 268 284 303 316 319 317 317 315 305
207 204 206 210 211 211 214 217 220 222 224 226 231 234 237 241 246 249 254 257 259 259 257 257 259 257 255 257 255 254 259 261 261 267 282 297 308 316 318 318 319 313
209 204 207 210 209 210 213 217 220 222 224 226 228 232 237 241 245 249 253 256 257 258 257 259 261 258 254 252 248 252 259 257 256 265 279 291 302 312 315 315 316 314
207 205 208 208 208 209 212 217 220 222 225 226 226 230 235 239 244 249 253 254 253 257 260 260 256 250 246 242 241 248 251 249 253 268 281 291 300 306 307 311 314 311
207 206 208 207 207 210 213 217 219 222 226 227 227 231 235 239 244 249 250 249 253 263 260 250 243 243 243 242 242 244 245 246 257 271 279 286 293 298 304 311 315 312
210 208 208 207 208 212 215 217 220 224 228 229 229 231 234 238 242 248 252 250 256 257 243 239 250 256 251 246 243 241 241 247 260 267 270 277 287 297 307 314 316 314
212 209 207 209 212 216 218 219 222 225 226 225 226 229 233 237 243 263 263 244 236 237 240 251 260 253 245 242 239 236 240 250 258 258 261 275 290 303 311 314 317 318
Height
815 816 818 818 819 820 821 822 822 823 823 823 823 824 824 824 825 826 826 826 827 826 826 825 824 824 824 824 824 824 824 824 824 824 823 823 823 823 823 822 822 822
814 815 816 817 818 818 819 820 821 821 822 822 822 822 823 823 824 824 825 825 826 825 825 824 824 824 823 823 823 823 823 823 823 823 823 822 822 822 821 821 821 820
812 813 814 815 816 817 818 818 819 820 821 821 821 821 822 822 823 823 823 824 824 824 824 823 823 823 823 822 822 822 822 822 822 822 822 821 821 821 820 820 819 819
809 811 812 814 815 815 816 817 818 819 820 820 820 820 820 821 822 822 822 823 823 823 823 822 822 821 821 821 821 821 821 821 821 821 820 820 819 819 818 818 818 817
807 809 810 812 813 814 815 816 817 818 819 819 819 819 820 820 821 821 821 821 822 822 822 821 821 820 820 820 820 820 820 820 820 819 819 818 818 817 817 816 816 815
805 806 808 809 811 813 814 814 815 816 817 818 819 819 819 819 820 820 820 820 820 820 821 820 820 819 818 818 818 818 818 818 818 818 817 817 816 816 815 815 814 813
802 803 805 807 809 811 812 812 813 814 815 817 817 818 818 818 819 819 818 818 818 818 819 818 818 818 817 817 816 816 816 816 816 816 816 815 814 814 813 813 812 811
798 801 802 805 806 808 810 810 810 811 813 814 815 816 817 817 817 817 817 817 816 817 817 817 817 816 816 815 815 815 814 814 814 814 814 813 812 812 811 811 810 809
795 797 799 802 804 806 807 808 808 808 810 812 813 814 815 815 815 815 815 815 815 815 815 815 815 815 814 814 813 813 812 812 812 812 811 811 810 809 809 809 808 807
792 794 796 798 801 803 805 805 805 806 808 809 810 812 812 813 813 813 813 813 813 813 813 813 813 813 813 812 811 811 811 810 810 810 809 809 808 808 807 807 806 806
789 791 793 795 798 800 802 803 803 804 805 807 808 809 810 810 811 811 811 811 811 811 811 811 812 811 811 810 809 809 808 808 807 807 807 807 807 806 805 805 804 803
785 787 790 793 795 797 799 800 801 802 803 804 806 807 807 808 809 809 809 809 809 809 809 809 809 809 809 808 808 807 806 806 805 805 805 805 804 804 803 803 802 801
782 784 787 789 792 794 796 797 798 799 801 802 803 804 805 806 806 807 807 807 808 808 807 807 807 807 807 807 806 805 805 804 803 803 803 802 802 802 801 800 800 799
780 783 784 786 789 791 793 794 795 797 798 800 801 802 803 804 804 805 805 806 806 806 805 805 805 805 805 805 804 804 803 802 801 801 800 800 800 799 799 798 797 796
780 781 782 785 787 789 790 791 792 794 796 798 799 800 801 802 802 803 803 803 804 803 803 803 803 803 803 803 802 802 801 800 800 799 798 798 797 796 796 795 795 794
779 780 781 783 784 786 787 788 790 792 794 796 797 797 798 799 800 800 800 801 801 801 801 801 801 801 800 800 800 800 799 799 798 797 796 795 794 794 793 792 792 792
778 778 780 781 782 783 785 786 788 790 792 793 794 795 796 796 797 797 797 798 798 798 798 798 798 798 798 798 798 798 797 796 795 795 794 793 792 791 790 789 789 788
773 773 776 779 780 781 782 784 787 788 789 791 791 792 793 793 794 794 794 795 795 795 795 795 795 795 795 796 795 795 795 794 793 792 791 791 790 789 788 787 786 785
768 769 773 776 777 778 780 782 784 785 786 788 788 789 790 791 792 792 792 792 792 792 792 791 791 792 792 793 792 792 792 792 791 790 789 788 787 786 785 784 783 782
766 767 770 773 774 776 778 780 781 782 783 785 786 787 787 788 789 788 788 788 788 789 789 788 788 789 789 790 790 790 790 790 789 788 787 786 785 784 783 781 780 780
765 764 767 769 770 773 775 776 777 778 780 781 782 783 784 784 785 785 784 785 785 785 786 785 786 786 787 787 788 788 788 787 786 786 785 784 782 781 781 779 778 778
763 762 764 765 767 769 771 772 774 774 776 777 778 779 780 780 781 781 780 781 782 782 783 783 783 783 784 785 785 786 785 785 784 783 782 781 780 779 778 777 777 776
759 759 760 761 763 765 767 768 769 770 771 772 774 775 776 777 777 777 777 778 780 781 781 780 781 781 782 782 783 783 782 782 782 781 780 779 778 777 776 775 775 774
757 756 756 758 759 761 762 763 764 766 767 768 771 772 773 774 775 775 776 777 778 778 778 778 779 779 780 780 780 780 780 780 780 779 778 777 776 775 774 773 773 772
753 753 753 754 755 756 758 759 761 762 764 766 768 770 771 772 773 774 776 776 775 776 776 777 777 777 778 778 778 778 778 778 777 777 776 775 774 773 772 771 770 769
751 750 749 750 752 753 754 756 758 760 762 764 766 768 769 771 772 774 774 774 773 774 774 775 775 775 776 776 776 776 776 776 775 775 774 773 772 771 769 769 768 767